Weather History for Keahole Point, HI

Change the Weather History Date:

Tuesday, November 13, 2012

  Actual Average Record
Temperature  
Mean Temperature 77 °F -  
Max Temperature 82 °F 82 °F 90 °F (1983)
Min Temperature 72 °F 70 °F 68 °F (1993)
Cooling Degree Days 12    
Growing Degree Days 27 (Base 50)    
Moisture  
Dew Point 61 °F    
Average Humidity 58    
Maximum Humidity 69    
Minimum Humidity 45    
Precipitation  
Precipitation 0.00 in - - ()
Sea Level Pressure  
Sea Level Pressure 30.03 in    
Wind  
Wind Speed 7 mph (ESE)    
Max Wind Speed 21 mph    
Max Gust Speed 26 mph    
Visibility 10 miles    
Events      
Averages and records for this station are not official NWS values.
T = Trace of Precipitation, MM = Missing Value Source: NWS Daily Summary

Daily Weather History Graph

Daily Weather History Graph

Search for Another Location

Airport:

Trip Planner

Search our weather history database for the weather conditions in past years. The results will help you decide how hot, cold, wet, or windy it might be!

Date:

Astronomy

Nov. 13, 2012 Rise Set
Actual Time 6:31 AM HST 5:45 PM HST
Civil Twilight 6:08 AM HST 6:08 PM HST
Nautical Twilight 5:42 AM HST 6:34 PM HST
Astronomical Twilight 5:15 AM HST 7:01 PM HST
Moon 6:20 AM HST (11/13) 5:52 PM HST (11/13)
Length of Visible Light 11h 59m
Length of Day
11h 13m
Waning Crescent, 0% of the Moon is Illuminated
Nov 13
Waning Crescent
Nov 13
New
Nov 20
First Quarter
Nov 28
Full
Dec 6
Last Quarter

Hourly Weather History & Observations

Time (HST) Temp. Heat Index Dew Point Humidity Pressure Visibility Wind Dir Wind Speed Gust Speed Precip Events Conditions
12:53 AM 73.0 °F - 57.0 °F 57% 30.06 in 10.0 mi NE 8.1 mph - N/A   Clear
1:53 AM 73.9 °F - 59.0 °F 59% 30.04 in 10.0 mi East 4.6 mph - N/A   Partly Cloudy
2:53 AM 73.9 °F - 59.0 °F 59% 30.02 in 10.0 mi Calm Calm - N/A   Partly Cloudy
3:53 AM 73.0 °F - 57.0 °F 57% 30.02 in 10.0 mi NNE 6.9 mph - N/A   Clear
4:53 AM 73.0 °F - 57.9 °F 59% 30.02 in 10.0 mi Calm Calm - N/A   Clear
5:53 AM 72.0 °F - 59.0 °F 64% 30.02 in 10.0 mi ESE 8.1 mph - N/A   Clear
6:53 AM 73.0 °F - 60.1 °F 64% 30.04 in 10.0 mi East 8.1 mph - N/A   Clear
7:53 AM 78.1 °F - 57.9 °F 50% 30.05 in 10.0 mi NE 5.8 mph - N/A   Clear
8:53 AM 81.0 °F 81.9 °F 62.1 °F 52% 30.07 in 10.0 mi NNE 3.5 mph - N/A   Scattered Clouds
9:53 AM 81.0 °F 82.5 °F 64.0 °F 56% 30.06 in 10.0 mi SW 8.1 mph - N/A   Clear
10:53 AM 81.0 °F 82.7 °F 64.9 °F 58% 30.05 in 10.0 mi SSW 8.1 mph - N/A   Scattered Clouds
11:53 AM 81.0 °F 82.5 °F 64.0 °F 56% 30.03 in 10.0 mi SSW 10.4 mph - N/A   Mostly Cloudy
12:53 PM 81.0 °F 82.7 °F 64.9 °F 58% 30.01 in 10.0 mi SW 9.2 mph - N/A   Overcast
1:53 PM 81.0 °F 82.7 °F 64.9 °F 58% 29.99 in 10.0 mi SSW 9.2 mph - N/A   Mostly Cloudy
2:53 PM 81.0 °F 83.0 °F 66.0 °F 60% 29.98 in 10.0 mi SW 6.9 mph - N/A   Overcast
3:53 PM 80.1 °F 82.1 °F 66.0 °F 62% 29.98 in 10.0 mi SW 9.2 mph - N/A   Mostly Cloudy
4:53 PM 82.9 °F 83.3 °F 61.0 °F 47% 29.99 in 10.0 mi North 18.4 mph 26.5 mph N/A   Overcast
5:53 PM 81.0 °F 81.1 °F 57.9 °F 45% 30.01 in 10.0 mi NE 20.7 mph - N/A   Partly Cloudy
6:53 PM 78.1 °F - 57.0 °F 48% 30.03 in 10.0 mi ENE 9.2 mph - N/A   Clear
7:53 PM 75.9 °F - 64.0 °F 67% 30.03 in 10.0 mi ESE 6.9 mph - N/A   Clear
8:53 PM 75.9 °F - 64.9 °F 69% 30.05 in 10.0 mi NE 5.8 mph - N/A   Clear
9:53 PM 75.0 °F - 64.0 °F 69% 30.05 in 10.0 mi SSE 5.8 mph - N/A   Clear
10:53 PM 73.9 °F - 63.0 °F 68% 30.05 in 10.0 mi SE 9.2 mph - N/A   Clear
11:53 PM 73.9 °F - 60.1 °F 62% 30.06 in 10.0 mi SSE 4.6 mph - N/A   Clear